Regional Weather Roundup
Issued by NWS Newport/Morehead, NC

Current Version | Previous Version | Graphics & Text | Print | Product List | Glossary Off
Versions: 1 2 3 4 5 6 7 8 9 10 11 12 13 14 15 16 17 18 19 20 21 22 23 24 25 26 27 28 29 30 31 32 33 34 35 36 37 38 39 40 41 42 43 44 45 46 47 48 49 50

000
ASUS42 KMHX 201713
RWRMHX
WEATHER ROUNDUP FOR EASTERN NORTH CAROLINA
NATIONAL WEATHER SERVICE NEWPORT/MOREHEAD CITY NC
100 PM EDT FRI APR 20 2018

NOTE: "FAIR" INDICATES FEW OR NO CLOUDS BELOW 12,000 FEET
WITH NO SIGNIFICANT WEATHER AND/OR OBSTRUCTIONS TO VISIBILITY

NCZ015>017-031-032-045>047-102-103-201800-
NORTH COAST

CITY           SKY/WX    TMP DP  RH WIND       PRES   REMARKS
EDENTON        FAIR      57  26  30 N7        30.32F
ELIZABETH CITY FAIR      57  30  35 N13       30.31S
KITTY HAWK     FAIR      50  32  51 N9G16     30.30S
MANTEO         FAIR      52  33  48 NE10      30.32S

$$

NCZ045>047-081-094-103-104-201800-
CENTRAL COAST

CITY           SKY/WX    TMP DP  RH WIND       PRES   REMARKS
FRISCO         FAIR      58  29  33 NW12G18   30.31S

$$

NCZ095-097-098-100-101-201800-
SOUTHERN COAST

CITY           SKY/WX    TMP DP  RH WIND       PRES   REMARKS
BEAUFORT       FAIR      59  30  33 MISG      30.32S
CEDAR ISLAND   NOT AVBL
JACKSONVILLE   FAIR      60  30  32 N14       30.32F
PINEY ISLAND   NOT AVBL
WILMINGTON     FAIR      61  29  29 MISG      30.32F


$$

NCZ011>013-027>030-043-044-078>080-089-090>093-098-201800-
COASTAL PLAIN

CITY           SKY/WX    TMP DP  RH WIND       PRES   REMARKS
AHOSKIE        FAIR      56  25  29 N7        30.32F
CLINTON        FAIR      60  31  33 NW3       30.34F
ELIZABETHTOWN  FAIR      60  27  28 MISG      30.34S
GOLDSBORO      FAIR      60  27  28 NW9       30.32S
GREENVILLE     FAIR      59  28  31 NW9       30.34S
HAVELOCK       SUNNY     60  32  34 N10       30.33S
KENANSVILLE    FAIR      59  28  31 N10       30.34S
KINSTON        FAIR      59  27  29 N10G16    30.33F
NEW BERN       FAIR      58  30  34 NW10G20   30.33F
RICHLANDS      FAIR      60  30  32 VRB6      30.33F
ROCKY MOUNT    FAIR      59  23  25 NW9       30.33F
WASHINGTON     FAIR      58  25  28 NE10G17   30.33S
WHITEVILLE     FAIR      58  27  30 CALM      30.33F

$$

AMZ130-135-150-152-154-156-158-170-250-252-270-ANZ085-086-088-633-658-670-201800-
MARINE OBSERVATIONS

STATION/POSITION TIME  TEMP    WIND        PRES    WAVE   SWELL
                       AIR SEA DIR/SP/G            HT/PER HT/PER
                 (UTC) (F)     (DEG/KT/KT) (MB)    (FT/S) (FT/S)
CHESAPEAKE LIGHT NOT AVBL
64 E VA BEACH    1650   44 48  330/ 12/ 14 1026.4    6/ 6   3/ 6
DUCK             1648   46 51   20/ 15/ 17 1025.8
2 E DUCK         1700      51                N/A     4/ 6
OREGON INLET     1612   48 54   10/ 13/ 17 1026.3
13E OREGON INLT  1648      51                N/A     5/ 6   3/14
HATTERAS CG      1648   52 60  340/ 16/ 19 1026.2
DIAMOND BUOY     1700   52 70  350/ 12/ 19 1026.7
CAPE LOOKOUT     1700          360/  7/  9 1026.9
BEAUFORT LAB     1648   56 61  360/  8/ 10 1026.7
30 SE NEW RVR IN 1608   53 65   40/ 10/ 16 1027.2
30 SE NEW RVR IN 1700      66                N/A     4/ 9   2/11
27 SE WRIGHTSVLE 1608   53 66   40/ 12/ 19 1027.4
5 SE WRIGHTSVLE  1608   54 60   50/ 10/ 14 1027.0
225 S CAPE HAT   1700   65 72   30/ 17/ 21 1022.8
41 SE CHARLESTON 1700   58 67   40/ 21/ 27 1026.1

$$




USA.gov is the U.S. government's official web portal to all federal, state and local government web resources and services.